When you browse on this site, cookies collect data to enhance your experience and personalize the content and advertising you see.
Visit our Privacy Policy to learn more. By continuing to use the site, you agree to this use of cookies and data.
  • In Österreich
  • Länderverzeichnis
  • Für 7 Tage
  • Wassertemperatur
  • Wetterkarte
  • News
  • Widgets
  • user-avatar
    Anmelden

    Stündliche Wetter Kannyn

    Heute, 9 April, Donnerstag

    Zeit Temperatur Niederschläge Wind Luftdruck Luftfeuchtigkeit
    00:00 +3°C° 0 mm 3 m/S 755 mmHg 54%
    01:00 +3°C° 0 mm 3 m/S 755 mmHg 55%
    02:00 +3°C° 0 mm 3 m/S 755 mmHg 56%
    03:00 +2°C° 0 mm 3 m/S 755 mmHg 58%
    04:00 +2°C° 0 mm 3 m/S 755 mmHg 59%
    05:00 +2°C° 0 mm 3 m/S 755 mmHg 60%
    06:00 +2°C° 0 mm 3 m/S 755 mmHg 62%
    07:00 +4°C° 0 mm 3 m/S 755 mmHg 53%
    08:00 +7°C° 0 mm 2 m/S 755 mmHg 44%
    09:00 +10°C° 0 mm 2 m/S 756 mmHg 35%
    10:00 +11°C° 0 mm 3 m/S 756 mmHg 35%
    11:00 +12°C° 0 mm 4 m/S 755 mmHg 35%
    12:00 +12°C° 0 mm 4 m/S 755 mmHg 35%
    13:00 +12°C° 0 mm 4 m/S 755 mmHg 39%
    14:00 +12°C° 0 mm 4 m/S 755 mmHg 44%
    15:00 +10°C° 0 mm 5 m/S 755 mmHg 48%
    16:00 +10°C° 0 mm 4 m/S 756 mmHg 59%
    17:00 +8°C° 0 mm 3 m/S 756 mmHg 70%
    18:00 +7°C° 0 mm 2 m/S 757 mmHg 81%
    19:00 +7°C° 0 mm 2 m/S 757 mmHg 83%
    20:00 +8°C° 0 mm 1 m/S 758 mmHg 85%
    21:00 +7°C° 0 mm 1 m/S 759 mmHg 87%
    22:00 +7°C° 0 mm 1 m/S 759 mmHg 88%
    23:00 +7°C° 0 mm 1 m/S 759 mmHg 88%

    Morgen, 10 April, Freitag

    Zeit Temperatur Niederschläge Wind Luftdruck Luftfeuchtigkeit
    00:00 +6°C° 0 mm 1 m/S 760 mmHg 89%
    01:00 +6°C° 0 mm 1 m/S 760 mmHg 89%
    02:00 +5°C° 0 mm 1 m/S 759 mmHg 89%
    03:00 +5°C° 0 mm 1 m/S 759 mmHg 89%
    04:00 +5°C° 0 mm 1 m/S 759 mmHg 88%
    05:00 +5°C° 0 mm 1 m/S 759 mmHg 88%
    06:00 +5°C° 0 mm 1 m/S 760 mmHg 87%
    07:00 +7°C° 0 mm 1 m/S 760 mmHg 74%
    08:00 +10°C° 0 mm 1 m/S 760 mmHg 61%
    09:00 +12°C° 0 mm 1 m/S 760 mmHg 48%
    10:00 +13°C° 0 mm 1 m/S 759 mmHg 46%
    11:00 +14°C° 0 mm 2 m/S 759 mmHg 44%
    12:00 +14°C° 0 mm 3 m/S 759 mmHg 43%
    13:00 +14°C° 0.2 mm 2 m/S 758 mmHg 51%
    14:00 +12°C° 0.2 mm 2 m/S 758 mmHg 59%
    15:00 +10°C° 0.2 mm 2 m/S 758 mmHg 68%
    16:00 +10°C° 0.4 mm 2 m/S 758 mmHg 73%
    17:00 +9°C° 0.4 mm 2 m/S 758 mmHg 78%
    18:00 +8°C° 0.4 mm 2 m/S 758 mmHg 84%
    19:00 +8°C° 0.1 mm 3 m/S 758 mmHg 86%
    20:00 +7°C° 0.1 mm 3 m/S 758 mmHg 87%
    21:00 +7°C° 0.1 mm 3 m/S 759 mmHg 89%
    22:00 +7°C° 0 mm 2 m/S 758 mmHg 88%
    23:00 +7°C° 0 mm 2 m/S 758 mmHg 86%

    übermorgen, 11 April, Samstag

    Zeit Temperatur Niederschläge Wind Luftdruck Luftfeuchtigkeit
    00:00 +6°C° 0 mm 2 m/S 758 mmHg 84%
    01:00 +6°C° 0 mm 2 m/S 758 mmHg 84%
    02:00 +6°C° 0 mm 2 m/S 757 mmHg 84%
    03:00 +5°C° 0 mm 2 m/S 757 mmHg 83%
    04:00 +5°C° 0 mm 2 m/S 756 mmHg 83%
    05:00 +5°C° 0 mm 2 m/S 756 mmHg 84%
    06:00 +5°C° 0 mm 2 m/S 756 mmHg 84%
    07:00 +7°C° 0 mm 2 m/S 756 mmHg 75%
    08:00 +9°C° 0 mm 2 m/S 756 mmHg 66%
    09:00 +12°C° 0 mm 1 m/S 755 mmHg 57%
    10:00 +14°C° 0 mm 2 m/S 755 mmHg 51%
    11:00 +15°C° 0 mm 2 m/S 755 mmHg 44%
    12:00 +16°C° 0 mm 2 m/S 754 mmHg 38%
    13:00 +16°C° 0 mm 3 m/S 754 mmHg 37%
    14:00 +16°C° 0 mm 3 m/S 753 mmHg 36%
    15:00 +15°C° 0 mm 4 m/S 752 mmHg 35%
    16:00 +15°C° 0 mm 4 m/S 752 mmHg 38%
    17:00 +14°C° 0 mm 4 m/S 752 mmHg 41%
    18:00 +13°C° 0 mm 4 m/S 751 mmHg 44%
    19:00 +12°C° 0 mm 4 m/S 751 mmHg 47%
    20:00 +11°C° 0 mm 4 m/S 752 mmHg 50%
    21:00 +8°C° 0 mm 4 m/S 752 mmHg 53%
    22:00 +8°C° 0 mm 4 m/S 752 mmHg 54%
    23:00 +8°C° 0 mm 3 m/S 752 mmHg 55%

    12 April, Sonntag

    Zeit Temperatur Niederschläge Wind Luftdruck Luftfeuchtigkeit
    00:00 +8°C° 0 mm 3 m/S 752 mmHg 56%
    01:00 +6°C° 0.3 mm 4 m/S 752 mmHg 66%
    02:00 +6°C° 0.3 mm 5 m/S 752 mmHg 75%
    03:00 +5°C° 0.3 mm 6 m/S 752 mmHg 84%
    04:00 +5°C° 0.6 mm 6 m/S 752 mmHg 88%
    05:00 +5°C° 0.6 mm 6 m/S 752 mmHg 91%
    06:00 +6°C° 0.6 mm 5 m/S 753 mmHg 95%
    07:00 +6°C° 0.8 mm 5 m/S 753 mmHg 95%
    08:00 +4°C° 0.8 mm 6 m/S 753 mmHg 95%
    09:00 +4°C° 0.8 mm 6 m/S 753 mmHg 95%
    10:00 +4°C° 0.4 mm 6 m/S 753 mmHg 94%
    11:00 +5°C° 0.4 mm 5 m/S 754 mmHg 94%
    12:00 +5°C° 0.4 mm 5 m/S 754 mmHg 93%
    13:00 +5°C° 0.1 mm 5 m/S 754 mmHg 91%
    14:00 +5°C° 0.1 mm 5 m/S 754 mmHg 89%
    15:00 +5°C° 0.1 mm 5 m/S 754 mmHg 87%
    16:00 +5°C° 0.1 mm 5 m/S 754 mmHg 87%
    17:00 +3°C° 0.1 mm 5 m/S 754 mmHg 87%
    18:00 +3°C° 0.1 mm 5 m/S 754 mmHg 87%
    19:00 +3°C° 0 mm 5 m/S 754 mmHg 85%
    20:00 +4°C° 0 mm 4 m/S 754 mmHg 82%
    21:00 +3°C° 0 mm 4 m/S 754 mmHg 80%
    22:00 +3°C° 0 mm 3 m/S 754 mmHg 81%
    23:00 +2°C° 0 mm 3 m/S 754 mmHg 82%

    13 April, Montag

    Zeit Temperatur Niederschläge Wind Luftdruck Luftfeuchtigkeit
    00:00 +2°C° 0 mm 3 m/S 754 mmHg 83%
    01:00 +2°C° 0 mm 3 m/S 753 mmHg 83%
    02:00 +2°C° 0 mm 3 m/S 753 mmHg 82%
    03:00 +1°C° 0 mm 3 m/S 752 mmHg 82%
    04:00 +1°C° 0 mm 3 m/S 752 mmHg 82%
    05:00 +1°C° 0 mm 3 m/S 752 mmHg 82%
    06:00 0°C° 0 mm 4 m/S 752 mmHg 82%
    07:00 +3°C° 0 mm 4 m/S 752 mmHg 76%
    08:00 +4°C° 0 mm 4 m/S 752 mmHg 70%
    09:00 +6°C° 0 mm 4 m/S 751 mmHg 63%
    10:00 +7°C° 0 mm 4 m/S 751 mmHg 58%
    11:00 +10°C° 0 mm 4 m/S 751 mmHg 52%
    12:00 +11°C° 0 mm 4 m/S 751 mmHg 46%
    13:00 +11°C° 0 mm 4 m/S 750 mmHg 44%
    14:00 +12°C° 0 mm 4 m/S 750 mmHg 41%
    15:00 +12°C° 0 mm 3 m/S 750 mmHg 39%
    16:00 +11°C° 0 mm 3 m/S 749 mmHg 41%
    17:00 +12°C° 0 mm 2 m/S 749 mmHg 44%
    18:00 +11°C° 0 mm 1 m/S 749 mmHg 46%
    19:00 +10°C° 0 mm 1 m/S 750 mmHg 47%
    20:00 +9°C° 0 mm 1 m/S 750 mmHg 48%
    21:00 +7°C° 0 mm 1 m/S 750 mmHg 49%
    22:00 +8°C° 0 mm 1 m/S 750 mmHg 48%
    23:00 +8°C° 0 mm 1 m/S 750 mmHg 47%

    14 April, Dienstag

    Zeit Temperatur Niederschläge Wind Luftdruck Luftfeuchtigkeit
    00:00 +7°C° 0 mm 2 m/S 750 mmHg 47%
    01:00 +7°C° 0 mm 2 m/S 750 mmHg 48%
    02:00 +7°C° 0 mm 2 m/S 750 mmHg 48%
    03:00 +7°C° 0 mm 3 m/S 750 mmHg 49%
    04:00 +7°C° 0 mm 3 m/S 750 mmHg 50%
    05:00 +7°C° 0 mm 3 m/S 750 mmHg 51%
    06:00 +5°C° 0 mm 3 m/S 750 mmHg 52%
    07:00 +9°C° 0 mm 3 m/S 750 mmHg 47%
    08:00 +12°C° 0 mm 3 m/S 750 mmHg 43%
    09:00 +16°C° 0 mm 3 m/S 750 mmHg 38%
    10:00 +18°C° 0 mm 3 m/S 750 mmHg 34%
    11:00 +20°C° 0 mm 3 m/S 750 mmHg 29%
    12:00 +21°C° 0 mm 3 m/S 749 mmHg 25%
    13:00 +21°C° 0 mm 4 m/S 749 mmHg 26%
    14:00 +21°C° 0 mm 4 m/S 748 mmHg 27%
    15:00 +21°C° 0 mm 5 m/S 748 mmHg 28%
    16:00 +20°C° 0 mm 5 m/S 748 mmHg 29%
    17:00 +19°C° 0 mm 6 m/S 748 mmHg 31%
    18:00 +17°C° 0 mm 6 m/S 748 mmHg 32%
    19:00 +15°C° 0 mm 6 m/S 748 mmHg 37%
    20:00 +14°C° 0 mm 5 m/S 748 mmHg 42%
    21:00 +12°C° 0 mm 4 m/S 749 mmHg 47%
    22:00 +11°C° 0 mm 4 m/S 749 mmHg 52%
    23:00 +11°C° 0 mm 4 m/S 749 mmHg 57%
    Mehr zeigen